Evanston, WY

7:11 PM MDT on August 27, 2016 (GMT -0600)
Evanston-Uinta County Burns

Weather History for KEVW - January, 2012

Change the Weather History Date:

Tuesday, January 10, 2012

  Actual Average Record
Temperature  
Mean Temperature 27 °F 22 °F  
Max Temperature 38 °F 29 °F 55 °F (2013)
Min Temperature 15 °F 14 °F -3 °F (2011)
Degree Days  
Heating Degree Days 38 44  
Month to date heating degree days 355 440  
Since 1 July heating degree days 3623 3919  
Cooling Degree Days 0 0  
Month to date cooling degree days 0 0  
Year to date cooling degree days 0 0  
Moisture  
Dew Point 19 °F    
Average Humidity 77    
Maximum Humidity 100    
Minimum Humidity 54    
Precipitation  
Precipitation 0.00 in 0.01 in 0.19 in (2005)
Month to date precipitation 0.03 0.19  
Year to date precipitation 0.03 0.19  
Sea Level Pressure  
Sea Level Pressure 30.19 in    
Wind  
Wind Speed 10 mph (SW)    
Max Wind Speed 25 mph    
Max Gust Speed 36 mph    
Visibility 6 miles    
Events Fog    
T = Trace of Precipitation, MM = Missing Value Source: NWS Daily Summary

Daily Weather History Graph

Daily Weather History Graph

Search for Another Location

Airport or City:

Trip Planner

Search our weather history database for the weather conditions in past years. The results will help you decide how hot, cold, wet, or windy it might be!

Date:

Astronomy

Jan. 10, 2012 Rise Set
Actual Time 7:49 AM MST 5:13 PM MST
Civil Twilight 7:18 AM MST 5:44 PM MST
Nautical Twilight 6:44 AM MST 6:19 PM MST
Astronomical Twilight 6:11 AM MST 6:52 PM MST
Moon 7:11 PM MST (1/10) 8:28 AM MST (1/10)
Length of Visible Light 10h 26m
Length of Day
9h 24m
Full, 98% of the Moon is Illuminated
Jan 10
Full
Jan 16
Last Quarter
Jan 23
New
Jan 30
First Quarter
Feb 7
Full

Hourly Weather History & Observations

Time (MST) Temp. Windchill Dew Point Humidity Pressure Visibility Wind Dir Wind Speed Gust Speed Precip Events Conditions
12:15 AM 21.2 °F - 19.4 °F 93% 30.26 in 1.5 mi Calm Calm - N/A   Partly Cloudy
12:17 AM 19.4 °F - 19.4 °F 100% 30.26 in 0.8 mi Calm Calm - N/A   Mist
12:53 AM 16.0 °F - 14.0 °F 92% 30.34 in 0.5 mi Calm Calm - N/A Fog Light Freezing Fog
1:17 AM 19.4 °F 11.5 °F 19.4 °F 100% 30.24 in 1.2 mi SSE 5.8 mph - N/A   Scattered Clouds
1:21 AM 19.4 °F 11.5 °F 19.4 °F 100% 30.24 in 2.0 mi South 5.8 mph - N/A   Scattered Clouds
1:29 AM 21.2 °F 13.6 °F 19.4 °F 93% 30.23 in 9.0 mi South 5.8 mph - N/A   Partly Cloudy
1:53 AM 21.0 °F 14.6 °F 19.0 °F 92% 30.29 in 5.0 mi South 4.6 mph - N/A   Partly Cloudy
1:59 AM 21.2 °F 14.9 °F 19.4 °F 93% 30.23 in 1.8 mi South 4.6 mph - N/A   Partly Cloudy
2:06 AM 21.2 °F 14.9 °F 19.4 °F 93% 30.23 in 3.0 mi South 4.6 mph - N/A   Partly Cloudy
2:53 AM 19.9 °F 14.9 °F 18.0 °F 92% 30.30 in 10.0 mi SSW 3.5 mph - N/A   Clear
3:22 AM 19.4 °F 12.8 °F 19.4 °F 100% 30.21 in 2.5 mi South 4.6 mph - N/A   Partly Cloudy
3:24 AM 19.4 °F 12.8 °F 19.4 °F 100% 30.21 in 1.5 mi South 4.6 mph - N/A   Scattered Clouds
3:34 AM 19.4 °F 11.5 °F 17.6 °F 93% 30.21 in 1.2 mi South 5.8 mph - N/A   Mostly Cloudy
3:40 AM 19.4 °F 11.5 °F 17.6 °F 93% 30.21 in 3.0 mi South 5.8 mph - N/A   Mostly Cloudy
4:00 AM 19.4 °F 12.8 °F 17.6 °F 93% 30.21 in 0.8 mi South 4.6 mph - N/A   Mist
4:38 AM 19.4 °F 10.4 °F 17.6 °F 93% 30.20 in 1.2 mi South 6.9 mph - N/A   Scattered Clouds
4:42 AM 19.4 °F 9.5 °F 17.6 °F 93% 30.20 in 2.0 mi South 8.1 mph - N/A   Partly Cloudy
4:53 AM 19.9 °F 11.1 °F 18.0 °F 92% 30.28 in 1.5 mi SSW 6.9 mph - N/A   Partly Cloudy
5:01 AM 19.4 °F 10.4 °F 17.6 °F 93% 30.20 in 2.0 mi SSW 6.9 mph - N/A   Clear
5:11 AM 19.4 °F 9.5 °F 17.6 °F 93% 30.20 in 4.0 mi SSW 8.1 mph - N/A   Clear
5:51 AM 19.4 °F 10.4 °F 17.6 °F 93% 30.19 in 2.5 mi SSW 6.9 mph - N/A   Partly Cloudy
5:53 AM 19.0 °F 11.1 °F 17.1 °F 92% 30.29 in 1.2 mi SW 5.8 mph - N/A   Partly Cloudy
5:55 AM 17.6 °F 9.3 °F 17.6 °F 100% 30.19 in 0.8 mi SW 5.8 mph - N/A   Mist
6:32 AM 17.6 °F 9.3 °F 15.8 °F 93% 30.20 in 1.8 mi SW 5.8 mph - N/A   Mostly Cloudy
6:35 AM 17.6 °F 9.3 °F 15.8 °F 93% 30.19 in 3.0 mi SSW 5.8 mph - N/A   Mostly Cloudy
6:42 AM 17.6 °F 8.2 °F 15.8 °F 93% 30.19 in 1.5 mi SW 6.9 mph - N/A   Mostly Cloudy
6:51 AM 17.6 °F 5.7 °F 14.0 °F 86% 30.18 in 0.5 mi SSW 10.4 mph - N/A Fog Light Freezing Fog
7:03 AM 15.8 °F 4.2 °F 14.0 °F 93% 30.18 in 1.0 mi SW 9.2 mph - N/A   Mist
7:20 AM 17.6 °F 9.3 °F 15.8 °F 93% 30.18 in 10.0 mi SSW 5.8 mph - N/A   Scattered Clouds
7:53 AM 17.1 °F 5.8 °F 15.1 °F 92% 30.29 in 10.0 mi SW 9.2 mph - N/A   Clear
8:53 AM 19.9 °F 8.6 °F 19.0 °F 96% 30.27 in 10.0 mi SW 10.4 mph - N/A   Clear
9:53 AM 21.9 °F 11.7 °F 21.0 °F 96% 30.26 in 10.0 mi SW 9.2 mph - N/A   Clear
10:53 AM 26.1 °F 17.6 °F 21.9 °F 84% 30.26 in 10.0 mi SSW 8.1 mph - N/A   Clear
11:53 AM 28.0 °F 19.3 °F 21.9 °F 78% 30.19 in 10.0 mi SSW 9.2 mph - N/A   Clear
12:53 PM 34.0 °F 25.0 °F 23.0 °F 64% 30.16 in 10.0 mi SW 12.7 mph - N/A   Clear
1:53 PM 36.0 °F 28.5 °F 24.1 °F 62% 30.10 in 10.0 mi WSW 10.4 mph - N/A   Clear
2:53 PM 37.9 °F 28.2 °F 24.1 °F 57% 30.08 in 10.0 mi WSW 18.4 mph - N/A   Clear
3:53 PM 36.0 °F 26.0 °F 23.0 °F 59% 30.06 in 10.0 mi WSW 17.3 mph - N/A   Clear
4:53 PM 34.0 °F 22.1 °F 23.0 °F 64% 30.08 in 10.0 mi West 21.9 mph - N/A   Clear
6:53 PM 30.9 °F 20.7 °F 23.0 °F 72% 30.12 in 10.0 mi West 13.8 mph 20.7 mph N/A   Overcast
7:53 PM 30.0 °F 19.5 °F 21.9 °F 72% 30.11 in 10.0 mi SW 13.8 mph - N/A   Mostly Cloudy
9:08 PM 28.4 °F 17.5 °F 21.2 °F 74% 30.05 in 10.0 mi West 13.8 mph 34.5 mph N/A   Mostly Cloudy
9:53 PM 28.0 °F 21.7 °F 19.9 °F 72% 30.13 in 10.0 mi WSW 5.8 mph - N/A   Overcast
10:32 PM 26.6 °F 16.8 °F 21.2 °F 80% 30.06 in 10.0 mi West 10.4 mph - N/A   Scattered Clouds
10:53 PM 26.1 °F 19.4 °F 19.0 °F 75% 30.13 in 10.0 mi NNW 5.8 mph - N/A   Mostly Cloudy
11:05 PM 24.8 °F 16.1 °F 17.6 °F 74% 30.06 in 10.0 mi WNW 8.1 mph - N/A   Scattered Clouds
11:53 PM 21.9 °F 12.5 °F 16.0 °F 78% 30.13 in 10.0 mi West 8.1 mph - N/A   Clear